Regional Weather Roundup
Issued by NWS Green Bay, WI

Home | Current Version | Previous Version | Graphics & Text | Print | Product List | Glossary Off
Versions: 1 2 3 4 5 6 7 8 9 10 11 12 13 14 15 16 17 18 19 20 21 22 23 24 25 26 27 28 29 30 31 32 33 34 35 36 37 38 39 40 41 42 43 44 45 46 47 48 49 50

520
ASUS43 KGRB 290211
RWRGRB

NORTH-CENTRAL AND NORTHEAST WISCONSIN REGIONAL WEATHER ROUNDUP
NATIONAL WEATHER SERVICE GREEN BAY WI
900 PM CDT SUN AUG 28 2016

WIZ005-009-010>012-018-019-290300-
NORTH CENTRAL WISCONSIN

CITY           SKY/WX    TMP DP  RH WIND       PRES   REMARKS
IRONWOOD       CLEAR     65  62  90 SE3       30.20R
MANITOWISH WTR PTCLDY    62  62 100 CALM      30.22R
ARBOR VITAE    CLEAR     64  62  92 CALM      30.23R
EAGLE RIVER    CLEAR     61  61 100 CALM      30.23R FOG
LAND O LAKES   CLEAR     60  59  97 CALM      30.24R
RHINELANDER    CLEAR     64  63  96 CALM      30.24R
PHILLIPS       CLEAR     65  64  97 CALM      30.21R
ANTIGO         CLEAR     63  62  95 CALM      30.25R
TOMAHAWK       CLEAR     63  61  92 CALM      30.23R
MERRILL        CLEAR     64  64  97 CALM      30.23R
$$

WIZ013-073-290300-
NORTHEAST WISCONSIN

CITY           SKY/WX    TMP DP  RH WIND       PRES   REMARKS
IRON MOUNTAIN  CLEAR     67  60  78 CALM      30.21R
MARINETTE      CLEAR    N/A N/A N/A S6        30.23R
OCONTO         CLEAR     67  63  89 S3        30.21R
$$

WIZ017-030-035>037-045-290300-
CENTRAL WISCONSIN

CITY           SKY/WX    TMP DP  RH WIND       PRES   REMARKS
MEDFORD        CLEAR     66  66 100 SE3       30.22R
WAUSAU         CLEAR     69  64  84 E3        30.21R
MOSINEE        NOT AVBL
MARSHFIELD     CLEAR     69  64  84 S5        30.21R
WISC RAPIDS    CLEAR     70  67  90 S3        30.22R
STEVENS POINT  CLEAR     68  64  89 CALM      30.22R
WAUPACA        CLEAR     70  68  94 CALM      30.21S
SHAWANO        PTCLDY    69  65  89 CALM      30.22R
CLINTONVILLE   CLEAR     66  64  94 CALM      30.21R
WAUTOMA        CLEAR     67  65  93 CALM      30.21
$$

WIZ038-039-048-051-290300-
FOX VALLEY

CITY           SKY/WX    TMP DP  RH WIND       PRES   REMARKS
NWS GREEN BAY  CLEAR     67  67 100 SE6       30.22R
APPLETON       PTCLDY    70  63  78 CALM      30.20R
OSHKOSH        CLEAR     70  66  87 CALM      30.21R
FOND DU LAC    CLEAR     69  66  90 SE6       30.21R
$$

WIZ022-050-052-290300-
EAST CENTRAL WISCONSIN

CITY           SKY/WX    TMP DP  RH WIND       PRES   REMARKS
EPHRAIM        FAIR      64  63  94 S3        30.22R
WASHINGTON ISL NOT AVBL
STURGEON BAY   CLEAR     64  62  93 S5        30.24R
MANITOWOC      CLEAR     64  63  94 CALM      30.23R FOG
SHEBOYGAN      PTCLDY    63  61  93 CALM      30.22R FOG
$$

LMZ563-521-522-541>543-290300-
LAKESHORE

STATION/POSITION TIME  TEMP    WIND        PRES    VSBY  WAVE
                       AIR SEA DIR/SP/G                  HT/PER
                 (UTC) (F)     (DEG/KT/KT) (MB)    (MI)  (FT/S)
SHEBOYGAN LKSHOR 0200   68        CALM     1022.9R
KEWAUNEE LKSHORE 0100   64                 1022.7R
NORTHPORT PIER   0100   69     190/  4/  6 1022.7R
N MID LAKE BUOY  0150   71 72  120/  2/  2 1023.1R         0
S GREEN BAY BUOY 0100   71 73  150/ 12/ 14 1022.2
CHAMBERS ISLAND  0100   69     150/  3/  4 1022.4R
MENOMINEE LKSHOR 0100   71                 1021.9R
$$




USA.gov is the U.S. government's official web portal to all federal, state and local government web resources and services.